Location: Frydek-Mistek
(49.6830°N, 18.3330°E)
Time: 06:21:53
(UTC+02:00)

Courier 1B Rocket - Visible Passes

Search period start: 05 July 2015 00:00
Search period end: 15 July 2015 00:00
Orbit: 921 x 1202 km, 28.2° (Epoch: 04 July)

Date Brightness Start Highest point End Pass type
(mag) Time Alt. Az. Time Alt. Az. Time Alt. Az.
05 Jul 7.0 22:48:55 10° SSW 22:51:27 12° S 22:52:25 11° S visible
06 Jul 7.0 21:47:28 10° SSW 21:50:47 13° S 21:53:59 10° SSE visible
07 Jul 7.1 22:40:57 10° SSW 22:42:14 10° SSW 22:43:21 10° S visible
08 Jul 7.1 21:38:37 10° SSW 21:41:33 12° S 21:44:23 10° SSE visible
